 day,  time,  air_temp(C),  RH(%),  ground_temp10cm(C),  ground_temp20cm(C),  ground_temp40cm(C),  precipitation(mm/h),  Solar_Radiation(MJ/m2h),  lack, 
 07/05/01, 01:00,   9.3,  41,   8.7,   8.3,   6.4,   0.0,  0.00, 
 07/05/01, 02:00,   8.8,  47,   8.5,   8.2,   6.4,   0.0,  0.00, 
 07/05/01, 03:00,   8.7,  46,   8.3,   8.2,   6.4,   0.0,  0.00, 
 07/05/01, 04:00,   8.5,  48,   8.2,   8.1,   6.5,   0.0,  0.00, 
 07/05/01, 05:00,   9.8,  38,   8.1,   8.1,   6.5,   0.0,  0.00, 
 07/05/01, 06:00,   9.9,  39,   7.9,   8.0,   6.5,   0.0,  0.01, 
 07/05/01, 07:00,   8.2,  64,   7.8,   8.0,   6.6,   0.0,  0.08, 
 07/05/01, 08:00,   7.1,  83,   7.7,   7.8,   6.6,   0.0,  0.18, 
 07/05/01, 09:00,   7.5,  78,   7.7,   7.8,   6.6,   0.0,  0.25, 
 07/05/01, 10:00,   7.6,  87,   7.7,   7.8,   6.7,   0.0,  0.55, 
 07/05/01, 11:00,   6.7,  95,   7.7,   7.8,   6.8,   0.5,  0.41, 
 07/05/01, 12:00,   6.1,  99,   7.8,   7.7,   6.8,   2.5,  0.27, 
 07/05/01, 13:00,   7.3,  99,   7.8,   7.7,   6.8,   2.5,  0.75, 
 07/05/01, 14:00,   8.1,  98,   7.9,   7.7,   6.8,   0.5,  1.34, 
 07/05/01, 15:00,   8.0,  92,   8.1,   7.7,   6.8,   0.0,  0.51, 
 07/05/01, 16:00,   7.5,  99,   8.2,   7.7,   6.7,   0.0,  0.19, 
 07/05/01, 17:00,   7.2,  99,   8.2,   7.7,   6.7,   0.0,  0.16, 
 07/05/01, 18:00,   7.1,  99,   8.2,   7.6,   6.7,   0.0,  0.10, 
 07/05/01, 19:00,   7.1,  99,   8.2,   7.7,   6.8,   0.0,  0.00, 
 07/05/01, 20:00,   7.0,  99,   8.1,   7.7,   6.9,   0.0,  0.00, 
 07/05/01, 21:00,  10.2,  90,   8.0,   7.7,   6.8,   0.0,  0.00, 
 07/05/01, 22:00,   8.6,  99,   8.0,   7.7,   6.9,   2.0,  0.00, 
 07/05/01, 23:00,   9.7,  95,   8.0,   7.7,   6.9,   0.5,  0.00, 
 07/05/02, 00:00,  10.5,  89,   7.9,   7.7,   6.9,   0.0,  0.00, 
 07/05/02, 01:00,  10.5,  89,   7.9,   7.7,   6.9,   0.0,  0.00, 
 07/05/02, 02:00,  11.0,  83,   7.9,   7.7,   6.9,   0.0,  0.00, 
 07/05/02, 03:00,   8.8,  99,   7.9,   7.7,   6.9,   2.0,  0.00, 
 07/05/02, 04:00,   7.8,  99,   7.9,   7.7,   6.9,   3.5,  0.00, 
 07/05/02, 05:00,   7.5,  99,   7.9,   7.7,   6.9,   0.0,  0.00, 
 07/05/02, 06:00,   7.5,  99,   7.8,   7.7,   6.9,   0.0,  0.00, 
 07/05/02, 07:00,   7.9,  99,   7.8,   7.7,   7.0,   0.5,  0.09, 
 07/05/02, 08:00,   8.4,  97,   7.8,   7.7,   7.0,   0.0,  0.42, 
 07/05/02, 09:00,   9.1,  97,   7.8,   7.7,   7.0,   0.0,  0.62, 
 07/05/02, 10:00,   8.7,  99,   8.0,   7.6,   7.0,   0.0,  0.45, 
 07/05/02, 11:00,   8.7,  99,   8.1,   7.6,   7.0,   0.0,  0.39, 
 07/05/02, 12:00,   9.5,  99,   8.2,   7.7,   7.0,   0.0,  0.78, 
 07/05/02, 13:00,   8.1,  99,   8.4,   7.7,   7.0,   1.0,  0.69, 
 07/05/02, 14:00,   8.5,  99,   8.6,   7.7,   7.0,   0.5,  0.89, 
 07/05/02, 15:00,   8.9,  98,   8.7,   7.8,   7.0,   0.0,  1.01, 
 07/05/02, 16:00,   8.7,  92,   8.9,   7.8,   7.0,   0.0,  1.08, 
 07/05/02, 17:00,   8.3,  85,   9.0,   7.9,   7.0,   0.0,  0.93, 
 07/05/02, 18:00,   7.5,  90,   9.1,   7.9,   7.0,   0.0,  0.46, 
 07/05/02, 19:00,   6.3,  91,   9.0,   8.0,   7.1,   0.0,  0.06, 
 07/05/02, 20:00,   5.8,  93,   8.8,   8.0,   7.1,   0.0,  0.00, 
 07/05/02, 21:00,   5.6,  87,   8.6,   8.1,   7.1,   0.0,  0.00, 
 07/05/02, 22:00,   5.7,  84,   8.4,   8.1,   7.1,   0.0,  0.00, 
 07/05/02, 23:00,   4.9,  87,   8.2,   8.1,   7.1,   0.0,  0.00, 
 07/05/03, 00:00,   2.6,  98,   7.9,   8.1,   7.1,   0.0,  0.00, 
 07/05/03, 01:00,   4.1,  91,   7.7,   8.0,   7.1,   0.0,  0.00, 
 07/05/03, 02:00,   3.2,  91,   7.4,   8.0,   7.1,   0.0,  0.00, 
 07/05/03, 03:00,   3.5,  69,   7.1,   7.8,   7.1,   0.0,  0.00, 
 07/05/03, 04:00,   4.2,  59,   6.8,   7.8,   7.2,   0.0,  0.00, 
 07/05/03, 05:00,   3.3,  59,   6.6,   7.7,   7.1,   0.0,  0.00, 
 07/05/03, 06:00,   3.9,  54,   6.2,   7.6,   7.2,   0.0,  0.09, 
 07/05/03, 07:00,   7.2,  51,   6.0,   7.4,   7.2,   0.0,  0.83, 
 07/05/03, 08:00,   8.7,  39,   6.2,   7.4,   7.2,   0.0,  1.62, 
 07/05/03, 09:00,  10.8,  46,   6.7,   7.3,   7.2,   0.0,  2.36, 
 07/05/03, 10:00,  11.0,  47,   7.4,   7.2,   7.2,   0.0,  2.93, 
 07/05/03, 11:00,  12.8,  42,   8.3,   7.2,   7.2,   0.0,  3.34, 
 07/05/03, 12:00,  13.6,  37,   9.5,   7.3,   7.2,   0.0,  3.60, 
 07/05/03, 13:00,  15.6,  35,  10.6,   7.4,   7.2,   0.0,  3.68, 
 07/05/03, 14:00,  15.0,  35,  11.0,   7.7,   7.2,   0.5,  2.31, 
 07/05/03, 15:00,  13.1,  36,  11.1,   7.9,   7.2,   0.0,  1.53, 
 07/05/03, 16:00,  15.0,  38,  11.1,   8.2,   7.2,   0.0,  1.31, 
 07/05/03, 17:00,  12.2,  43,  11.1,   8.4,   7.1,   0.0,  0.38, 
 07/05/03, 18:00,  11.4,  48,  11.0,   8.6,   7.2,   0.0,  0.20, 
 07/05/03, 19:00,  10.8,  47,  10.8,   8.8,   7.2,   0.0,  0.02, 
 07/05/03, 20:00,   9.8,  51,  10.6,   8.9,   7.2,   0.0,  0.00, 
 07/05/03, 21:00,   9.6,  50,  10.3,   8.9,   7.2,   0.0,  0.00, 
 07/05/03, 22:00,   9.5,  49,  10.0,   9.0,   7.2,   0.0,  0.00, 
 07/05/03, 23:00,   9.1,  44,   9.7,   9.0,   7.2,   0.0,  0.00, 
 07/05/04, 00:00,   8.3,  57,   9.5,   9.0,   7.3,   0.0,  0.00, 
 07/05/04, 01:00,   7.8,  71,   9.3,   9.0,   7.3,   0.0,  0.00, 
 07/05/04, 02:00,   6.3,  87,   9.1,   8.9,   7.3,   0.0,  0.00, 
 07/05/04, 03:00,   6.6,  79,   8.9,   8.9,   7.3,   0.0,  0.00, 
 07/05/04, 04:00,   7.0,  78,   8.7,   8.8,   7.4,   0.0,  0.00, 
 07/05/04, 05:00,   6.5,  81,   8.5,   8.8,   7.4,   0.0,  0.00, 
 07/05/04, 06:00,   7.5,  75,   8.3,   8.7,   7.4,   0.0,  0.10, 
 07/05/04, 07:00,  10.0,  67,   8.1,   8.6,   7.4,   0.0,  0.77, 
 07/05/04, 08:00,  11.8,  58,   8.2,   8.5,   7.5,   0.0,  1.56, 
 07/05/04, 09:00,  12.8,  54,   8.6,   8.5,   7.5,   0.0,  2.26, 
 07/05/04, 10:00,  15.5,  42,   9.2,   8.4,   7.5,   0.0,  2.86, 
 07/05/04, 11:00,  16.2,  40,  10.1,   8.4,   7.5,   0.0,  3.31, 
 07/05/04, 12:00,  16.9,  34,  11.2,   8.5,   7.5,   0.0,  3.56, 
 07/05/04, 13:00,  19.1,  28,  12.2,   8.7,   7.5,   0.0,  3.56, 
 07/05/04, 14:00,  19.6,  27,  12.6,   8.9,   7.5,   0.0,  3.31, 
 07/05/04, 15:00,  18.7,  33,  12.5,   9.1,   7.5,   0.0,  2.86, 
 07/05/04, 16:00,  18.1,  36,  12.4,   9.4,   7.5,   0.0,  2.21, 
 07/05/04, 17:00,  15.7,  40,  12.6,   9.6,   7.6,   0.0,  1.51, 
 07/05/04, 18:00,  14.3,  48,  12.5,   9.8,   7.6,   0.0,  0.71, 
 07/05/04, 19:00,  12.9,  54,  12.2,   9.9,   7.6,   0.0,  0.11, 
 07/05/04, 20:00,  11.8,  58,  11.9,  10.0,   7.6,   0.0,  0.00, 
 07/05/04, 21:00,  11.6,  62,  11.6,  10.1,   7.6,   0.0,  0.00, 
 07/05/04, 22:00,  11.4,  67,  11.3,  10.1,   7.7,   0.0,  0.00, 
 07/05/04, 23:00,  10.4,  79,  11.0,  10.1,   7.7,   0.0,  0.00, 
 07/05/05, 00:00,  10.5,  77,  10.7,  10.1,   7.6,   0.0,  0.00, 
 07/05/05, 01:00,   7.9,  90,  10.5,  10.0,   7.8,   0.0,  0.00, 
 07/05/05, 02:00,   8.9,  84,  10.3,  10.0,   7.8,   0.0,  0.00, 
 07/05/05, 03:00,   9.0,  83,  10.1,   9.9,   7.8,   0.0,  0.00, 
 07/05/05, 04:00,   7.9,  90,   9.8,   9.9,   7.8,   0.0,  0.00, 
 07/05/05, 05:00,   8.8,  87,   9.6,   9.8,   7.9,   0.0,  0.00, 
 07/05/05, 06:00,   9.4,  85,   9.5,   9.7,   7.9,   0.0,  0.04, 
 07/05/05, 07:00,  10.5,  83,   9.4,   9.6,   8.0,   0.0,  0.59, 
 07/05/05, 08:00,  11.2,  83,   9.5,   9.5,   8.0,   0.0,  0.99, 
 07/05/05, 09:00,  12.6,  69,   9.8,   9.5,   8.0,   0.0,  1.64, 
 07/05/05, 10:00,  14.8,  61,  10.1,   9.4,   8.0,   0.0,  2.75, 
 07/05/05, 11:00,  16.8,  51,  10.9,   9.4,   8.1,   0.0,  2.84, 
 07/05/05, 12:00,  18.5,  50,  11.8,   9.5,   8.1,   0.0,  2.75, 
 07/05/05, 13:00,  16.2,  53,  12.6,   9.6,   8.1,   0.0,  1.97, 
 07/05/05, 14:00,  17.1,  54,  13.0,   9.8,   8.2,   0.0,  1.50, 
 07/05/05, 15:00,  18.0,  53,  13.2,  10.0,   8.1,   0.0,  1.49, 
 07/05/05, 16:00,  17.2,  53,  13.3,  10.2,   8.1,   0.0,  1.69, 
 07/05/05, 17:00,  16.2,  54,  13.5,  10.3,   8.2,   0.0,  0.98, 
 07/05/05, 18:00,  15.1,  62,  13.5,  10.5,   8.1,   0.0,  0.45, 
 07/05/05, 19:00,  13.1,  77,  13.3,  10.6,   8.2,   0.0,  0.07, 
 07/05/05, 20:00,  12.6,  83,  13.1,  10.8,   8.2,   0.0,  0.00, 
 07/05/05, 21:00,  11.9,  83,  12.7,  10.8,   8.2,   0.0,  0.00, 
 07/05/05, 22:00,  10.3,  91,  12.4,  10.9,   8.2,   0.0,  0.00, 
 07/05/05, 23:00,  10.2,  90,  12.1,  10.9,   8.2,   0.0,  0.00, 
 07/05/06, 00:00,  10.1,  88,  11.8,  10.9,   8.2,   0.0,  0.00, 
 07/05/06, 01:00,  11.1,  75,  11.5,  10.9,   8.2,   0.0,  0.00, 
 07/05/06, 02:00,  10.6,  75,  11.3,  10.8,   8.4,   0.0,  0.00, 
 07/05/06, 03:00,  10.7,  76,  11.1,  10.8,   8.4,   0.0,  0.00, 
 07/05/06, 04:00,   8.9,  95,  11.0,  10.6,   8.4,   0.0,  0.00, 
 07/05/06, 05:00,   9.6,  97,  10.8,  10.6,   8.4,   0.0,  0.00, 
 07/05/06, 06:00,   9.7,  98,  10.7,  10.5,   8.5,   0.5,  0.01, 
 07/05/06, 07:00,   9.9,  98,  10.6,  10.5,   8.5,   1.0,  0.08, 
 07/05/06, 08:00,   9.5,  99,  10.5,  10.4,   8.5,   2.0,  0.19, 
 07/05/06, 09:00,  10.0,  99,  10.5,  10.4,   8.6,   0.5,  0.42, 
 07/05/06, 10:00,  10.9,  99,  10.5,  10.3,   8.6,   0.5,  0.57, 
 07/05/06, 11:00,  11.0,  99,  10.6,  10.3,   8.6,   1.0,  0.70, 
 07/05/06, 12:00,  10.9,  99,  10.8,  10.2,   8.6,   0.5,  0.57, 
 07/05/06, 13:00,  10.4,  97,  11.0,  10.2,   8.6,   1.0,  0.61, 
 07/05/06, 14:00,   9.9,  93,  11.1,  10.2,   8.7,   0.5,  0.59, 
 07/05/06, 15:00,   9.8,  97,  11.1,  10.2,   8.7,   1.0,  0.38, 
 07/05/06, 16:00,   9.8,  99,  11.1,  10.3,   8.7,   1.0,  0.32, 
 07/05/06, 17:00,   9.3,  99,  11.1,  10.3,   8.7,   0.5,  0.23, 
 07/05/06, 18:00,   9.6,  99,  11.0,  10.3,   8.7,   0.5,  0.13, 
 07/05/06, 19:00,   9.2,  99,  10.9,  10.3,   8.7,   0.0,  0.06, 
 07/05/06, 20:00,   8.4,  99,  10.8,  10.3,   8.7,   0.0,  0.00, 
 07/05/06, 21:00,   8.6,  99,  10.7,  10.3,   8.7,   0.0,  0.00, 
 07/05/06, 22:00,   8.7,  99,  10.5,  10.3,   8.8,   0.0,  0.00, 
 07/05/06, 23:00,   9.2,  93,  10.4,  10.3,   8.7,   0.0,  0.00, 
 07/05/07, 00:00,   8.3,  99,  10.2,  10.2,   8.7,   0.0,  0.00, 
 07/05/07, 01:00,   8.2,  99,  10.1,  10.2,   8.8,   0.0,  0.00, 
 07/05/07, 02:00,   7.9,  99,   9.9,  10.1,   8.7,   0.0,  0.00, 
 07/05/07, 03:00,   7.9,  99,   9.8,  10.1,   8.8,   0.0,  0.00, 
 07/05/07, 04:00,   7.8,  99,   9.7,  10.0,   8.8,   0.5,  0.00, 
 07/05/07, 05:00,   7.6,  99,   9.7,   9.9,   8.7,   0.5,  0.00, 
 07/05/07, 06:00,   7.4,  99,   9.6,   9.9,   8.9,   0.5,  0.00, 
 07/05/07, 07:00,   7.7,  99,   9.5,   9.8,   8.9,   0.0,  0.20, 
 07/05/07, 08:00,   8.3,  99,   9.5,   9.8,   8.8,   0.5,  0.53, 
 07/05/07, 09:00,   8.8,  99,   9.6,   9.6,   8.8,   0.0,  0.57, 
 07/05/07, 10:00,  10.7,  97,   9.8,   9.6,   8.8,   0.0,  2.10, 
 07/05/07, 11:00,  13.0,  83,  10.3,   9.7,   8.9,   0.0,  2.72, 
 07/05/07, 12:00,  14.0,  68,  11.2,   9.7,   8.9,   0.0,  2.63, 
 07/05/07, 13:00,  16.2,  56,  12.1,   9.7,   8.9,   0.0,  3.41, 
 07/05/07, 14:00,  16.4,  33,  12.4,   9.9,   8.8,   0.0,  3.43, 
 07/05/07, 15:00,  16.5,  30,  12.3,  10.1,   8.9,   0.0,  2.99, 
 07/05/07, 16:00,  15.9,  30,  12.3,  10.2,   8.9,   0.0,  2.36, 
 07/05/07, 17:00,  14.2,  31,  12.5,  10.4,   8.9,   0.0,  1.61, 
 07/05/07, 18:00,  13.2,  32,  12.5,  10.5,   8.9,   0.0,  0.77, 
 07/05/07, 19:00,  11.8,  31,  12.2,  10.5,   8.9,   0.0,  0.13, 
 07/05/07, 20:00,  10.7,  27,  11.9,  10.7,   8.9,   0.0,  0.00, 
 07/05/07, 21:00,  10.1,  31,  11.5,  10.6,   8.9,   0.5,  0.00, 
 07/05/07, 22:00,  10.1,  30,  11.1,  10.7,   8.9,   0.0,  0.00, 
 07/05/07, 23:00,   9.2,  30,  10.7,  10.7,   8.9,   0.0,  0.00, 
 07/05/08, 00:00,  11.0,  22,  10.3,  10.6,   8.9,   0.0,  0.00, 
 07/05/08, 01:00,  10.0,  28,  10.0,  10.5,   9.0,   0.0,  0.00, 
 07/05/08, 02:00,   7.1,  41,   9.7,  10.4,   8.9,   0.0,  0.00, 
 07/05/08, 03:00,   9.1,  35,   9.5,  10.3,   9.0,   0.0,  0.00, 
 07/05/08, 04:00,   8.6,  45,   9.2,  10.2,   8.9,   0.0,  0.00, 
 07/05/08, 05:00,  10.7,  41,   9.0,  10.1,   8.9,   0.0,  0.00, 
 07/05/08, 06:00,   8.9,  51,   8.8,  10.0,   8.9,   0.0,  0.12, 
 07/05/08, 07:00,  11.9,  54,   8.7,   9.9,   9.0,   0.0,  0.74, 
 07/05/08, 08:00,  14.3,  39,   8.8,   9.7,   9.0,   0.0,  1.51, 
 07/05/08, 09:00,  16.4,  31,   9.3,   9.6,   9.0,   0.0,  2.22, 
 07/05/08, 10:00,  18.5,  31,   9.9,   9.6,   9.0,   0.0,  2.80, 
 07/05/08, 11:00,  19.4,  32,  10.8,   9.6,   8.9,   0.0,  3.20, 
 07/05/08, 12:00,  21.1,  31,  12.0,   9.6,   9.1,   0.0,  3.41, 
 07/05/08, 13:00,  20.6,  30,  13.2,   9.8,   9.0,   0.0,  3.36, 
 07/05/08, 14:00,  22.3,  28,  13.6,  10.0,   9.0,   0.0,  3.09, 
 07/05/08, 15:00,  22.0,  30,  13.7,  10.3,   8.9,   0.0,  2.67, 
 07/05/08, 16:00,  20.9,  32,  13.7,  10.5,   9.0,   0.0,  1.84, 
 07/05/08, 17:00,  18.7,  31,  13.9,  10.8,   9.0,   0.0,  1.28, 
 07/05/08, 18:00,  16.3,  32,  13.9,  10.9,   9.0,   0.0,  0.62, 
 07/05/08, 19:00,  14.5,  35,  13.7,  11.1,   9.0,   0.0,  0.10, 
 07/05/08, 20:00,  12.1,  43,  13.3,  11.2,   9.0,   0.0,  0.00, 
 07/05/08, 21:00,  10.4,  49,  12.8,  11.3,   9.1,   0.0,  0.00, 
 07/05/08, 22:00,   9.8,  53,  12.5,  11.4,   9.0,   0.0,  0.00, 
 07/05/08, 23:00,   9.2,  56,  12.1,  11.4,   9.1,   0.0,  0.00, 
 07/05/09, 00:00,  13.2,  40,  11.8,  11.3,   9.1,   0.0,  0.00, 
 07/05/09, 01:00,  11.2,  47,  11.5,  11.3,   9.2,   0.0,  0.00, 
 07/05/09, 02:00,  12.8,  41,  11.2,  11.2,   9.1,   0.0,  0.00, 
 07/05/09, 03:00,   9.3,  55,  11.0,  11.1,   9.1,   0.0,  0.00, 
 07/05/09, 04:00,   9.1,  53,  10.7,  11.1,   9.2,   0.0,  0.00, 
 07/05/09, 05:00,   9.5,  47,  10.5,  10.9,   9.2,   0.0,  0.00, 
 07/05/09, 06:00,  10.4,  46,  10.3,  10.9,   9.2,   0.0,  0.13, 
 07/05/09, 07:00,  13.8,  46,  10.1,  10.8,   9.3,   0.0,  0.68, 
 07/05/09, 08:00,  16.9,  37,  10.2,  10.7,   9.3,   0.0,  1.40, 
 07/05/09, 09:00,  18.0,  33,  10.5,  10.6,   9.4,   0.0,  2.18, 
 07/05/09, 10:00,  21.7,  30,  11.1,  10.5,   9.4,   0.0,  2.82, 
 07/05/09, 11:00,  22.2,  21,  12.0,  10.5,   9.4,   0.0,  3.26, 
 07/05/09, 12:00,  22.5,  23,  13.2,  10.6,   9.4,   0.0,  3.51, 
 07/05/09, 13:00,  23.1,  23,  14.3,  10.7,   9.4,   0.0,  3.40, 
 07/05/09, 14:00,  23.8,  23,  14.7,  10.9,   9.4,   0.0,  3.03, 
 07/05/09, 15:00,  23.2,  26,  14.8,  11.2,   9.3,   0.0,  2.56, 
 07/05/09, 16:00,  21.4,  30,  14.8,  11.4,   9.3,   0.0,  1.49, 
 07/05/09, 17:00,  20.2,  31,  14.8,  11.6,   9.4,   0.0,  0.86, 
 07/05/09, 18:00,  18.6,  34,  14.8,  11.8,   9.4,   0.0,  0.37, 
 07/05/09, 19:00,  16.6,  39,  14.5,  12.0,   9.4,   0.0,  0.06, 
 07/05/09, 20:00,  16.1,  36,  14.3,  12.1,   9.5,   0.0,  0.00, 
 07/05/09, 21:00,  16.7,  32,  13.9,  12.2,   9.4,   0.0,  0.00, 
 07/05/09, 22:00,  16.5,  32,  13.6,  12.2,   9.5,   0.0,  0.00, 
 07/05/09, 23:00,  16.7,  28,  13.3,  12.2,   9.5,   0.0,  0.00, 
 07/05/10, 00:00,  16.1,  30,  13.0,  12.2,   9.6,   0.0,  0.00, 
 07/05/10, 01:00,  16.0,  30,  12.7,  12.1,   9.6,   0.0,  0.00, 
 07/05/10, 02:00,  15.1,  36,  12.4,  12.1,   9.6,   0.0,  0.00, 
 07/05/10, 03:00,  12.9,  45,  12.2,  12.0,   9.6,   0.0,  0.00, 
 07/05/10, 04:00,  13.4,  46,  11.9,  11.9,   9.6,   0.0,  0.00, 
 07/05/10, 05:00,  14.5,  33,  11.7,  11.9,   9.6,   0.0,  0.00, 
 07/05/10, 06:00,  13.9,  33,  11.5,  11.8,   9.7,   0.0,  0.14, 
 07/05/10, 07:00,  14.3,  37,  11.4,  11.7,   9.8,   0.0,  0.48, 
 07/05/10, 08:00,  15.0,  32,  11.4,  11.6,   9.8,   0.0,  1.60, 
 07/05/10, 09:00,  17.0,  34,  11.6,  11.5,   9.8,   0.0,  2.37, 
 07/05/10, 10:00,  16.0,  42,  12.1,  11.5,   9.9,   0.0,  1.67, 
 07/05/10, 11:00,  15.5,  39,  12.5,  11.4,   9.9,   0.0,  2.30, 
 07/05/10, 12:00,  11.7,  57,  13.1,  11.5,   9.9,   0.0,  1.19, 
 07/05/10, 13:00,  11.4,  72,  13.3,  11.5,   9.9,   0.0,  0.92, 
 07/05/10, 14:00,   5.9,  99,  13.2,  11.6,   9.9,   6.5,  0.02, 
 07/05/10, 15:00,   5.0,  99,  12.7,  11.7,   9.9,   6.5,  0.26, 
 07/05/10, 16:00,   4.7,  99,  12.2,  11.8,   9.8,   0.5,  0.33, 
 07/05/10, 17:00,   4.2,  99,  11.9,  11.8,   9.9,   2.0,  0.17, 
 07/05/10, 18:00,   3.0,  99,  11.6,  11.7,   9.9,   0.5,  0.04, 
 07/05/10, 19:00,   2.2,  99,  11.2,  11.7,  10.0,   0.0,  0.00, 
 07/05/10, 20:00,   1.9,  99,  10.9,  11.6,  10.0,   0.0,  0.00, 
 07/05/10, 21:00,   1.3,  97,  10.5,  11.5,  10.0,   1.0,  0.00, 
 07/05/10, 22:00,   1.1,  99,  10.1,  11.4,  10.0,   1.5,  0.00, 
 07/05/10, 23:00,   0.7,  99,   9.7,  11.2,  10.0,   0.5,  0.00, 
 07/05/11, 00:00,   0.8,  98,   9.4,  11.0,  10.0,   0.5,  0.00, 
 07/05/11, 01:00,   1.0,  97,   9.0,  10.8,  10.0,   0.5,  0.00, 
 07/05/11, 02:00,   1.0,  97,   8.7,  10.7,  10.0,   0.0,  0.00, 
 07/05/11, 03:00,   1.6,  96,   8.5,  10.5,  10.1,   0.5,  0.00, 
 07/05/11, 04:00,   1.6,  91,   8.3,  10.4,  10.0,   0.0,  0.00, 
 07/05/11, 05:00,   1.7,  92,   8.1,  10.3,  10.0,   0.0,  0.00, 
 07/05/11, 06:00,   2.1,  89,   8.0,  10.1,  10.0,   0.0,  0.05, 
 07/05/11, 07:00,   2.6,  89,   7.8,   9.9,   9.9,   0.0,  0.34, 
 07/05/11, 08:00,   3.3,  88,   7.7,   9.8,   9.9,   0.0,  0.59, 
 07/05/11, 09:00,   4.3,  79,   7.8,   9.7,  10.0,   0.0,  1.40, 
 07/05/11, 10:00,   7.8,  64,   8.0,   9.4,   9.9,   0.0,  2.70, 
 07/05/11, 11:00,   8.8,  59,   8.7,   9.3,   9.9,   0.0,  3.39, 
 07/05/11, 12:00,   9.6,  60,   9.7,   9.3,   9.8,   0.0,  3.30, 
 07/05/11, 13:00,   9.6,  50,  10.7,   9.4,   9.9,   0.0,  3.57, 
 07/05/11, 14:00,   9.8,  53,  11.1,   9.4,   9.8,   0.0,  3.35, 
 07/05/11, 15:00,   9.5,  51,  11.1,   9.7,   9.7,   0.0,  2.82, 
 07/05/11, 16:00,   9.2,  51,  11.0,   9.8,   9.8,   0.0,  2.29, 
 07/05/11, 17:00,   7.6,  65,  11.2,  10.0,   9.8,   0.0,  1.55, 
 07/05/11, 18:00,   6.4,  74,  11.1,  10.1,   9.7,   0.0,  0.81, 
 07/05/11, 19:00,   4.8,  79,  10.8,  10.2,   9.7,   0.0,  0.15, 
 07/05/11, 20:00,   3.2,  92,  10.5,  10.2,   9.7,   0.0,  0.00, 
 07/05/11, 21:00,   2.6,  93,  10.1,  10.3,   9.6,   0.0,  0.00, 
 07/05/11, 22:00,   1.2,  99,   9.8,  10.2,   9.6,   0.0,  0.00, 
 07/05/11, 23:00,   2.8,  97,   9.5,  10.2,   9.6,   0.0,  0.00, 
 07/05/12, 00:00,   3.6,  77,   9.2,  10.1,   9.6,   0.0,  0.00, 
 07/05/12, 01:00,   1.1,  89,   8.9,  10.0,   9.6,   0.0,  0.00, 
 07/05/12, 02:00,   4.1,  68,   8.6,   9.9,   9.6,   0.0,  0.00, 
 07/05/12, 03:00,   4.4,  53,   8.3,   9.8,   9.6,   0.0,  0.00, 
 07/05/12, 04:00,   3.4,  58,   8.1,   9.6,   9.5,   0.0,  0.00, 
 07/05/12, 05:00,   2.7,  61,   7.9,   9.5,   9.5,   0.0,  0.00, 
 07/05/12, 06:00,   5.9,  42,   7.7,   9.4,   9.5,   0.0,  0.13, 
 07/05/12, 07:00,   7.5,  44,   7.6,   9.3,   9.5,   0.0,  0.91, 
 07/05/12, 08:00,   8.3,  51,   7.7,   9.3,   9.5,   0.0,  1.70, 
 07/05/12, 09:00,  11.6,  45,   8.2,   9.2,   9.5,   0.0,  2.37, 
 07/05/12, 10:00,  13.8,  45,   8.9,   9.1,   9.5,   0.0,  2.81, 
 07/05/12, 11:00,  14.7,  36,   9.8,   9.1,   9.6,   0.0,  3.27, 
 07/05/12, 12:00,  16.8,  24,  10.9,   9.2,   9.4,   0.0,  3.50, 
 07/05/12, 13:00,  17.8,  15,  11.9,   9.3,   9.5,   0.0,  3.23, 
 07/05/12, 14:00,  20.5,  16,  12.3,   9.5,   9.5,   0.0,  3.09, 
 07/05/12, 15:00,  19.5,  28,  12.4,   9.8,   9.5,   0.0,  2.39, 
 07/05/12, 16:00,  18.1,  33,  12.5,  10.0,   9.5,   0.0,  1.81, 
 07/05/12, 17:00,  15.4,  34,  12.7,  10.2,   9.5,   0.0,  0.59, 
 07/05/12, 18:00,  14.5,  36,  12.6,  10.4,   9.4,   0.0,  0.23, 
 07/05/12, 19:00,  12.7,  39,  12.4,  10.5,   9.4,   0.0,  0.00, 
 07/05/12, 20:00,  11.8,  40,  12.2,  10.7,   9.3,   0.0,  0.00, 
 07/05/12, 21:00,  11.4,  43,  12.0,  10.7,   9.4,   0.0,  0.00, 
 07/05/12, 22:00,  11.1,  45,  11.7,  10.8,   9.4,   0.0,  0.00, 
 07/05/12, 23:00,  10.9,  50,  11.5,  10.8,   9.4,   0.0,  0.00, 
 07/05/13, 00:00,  10.8,  50,  11.3,  10.8,   9.4,   0.0,  0.00, 
 07/05/13, 01:00,  10.8,  49,  11.1,  10.8,   9.4,   0.0,  0.00, 
 07/05/13, 02:00,  10.8,  44,  10.9,  10.8,   9.3,   0.0,  0.00, 
 07/05/13, 03:00,  10.6,  42,  10.7,  10.7,   9.5,   0.0,  0.00, 
 07/05/13, 04:00,  10.6,  45,  10.6,  10.6,   9.5,   0.0,  0.00, 
 07/05/13, 05:00,  10.4,  59,  10.4,  10.6,   9.6,   0.0,  0.00, 
 07/05/13, 06:00,  10.0,  68,  10.3,  10.5,   9.5,   0.0,  0.05, 
 07/05/13, 07:00,  10.3,  72,  10.2,  10.5,   9.6,   0.0,  0.39, 
 07/05/13, 08:00,  10.5,  72,  10.2,  10.5,   9.6,   0.0,  0.69, 
 07/05/13, 09:00,  10.8,  70,  10.3,  10.4,   9.6,   0.0,  0.71, 
 07/05/13, 10:00,  12.4,  63,  10.4,  10.4,   9.5,   0.0,  1.53, 
 07/05/13, 11:00,  11.9,  58,  10.8,  10.4,   9.5,   0.0,  2.64, 
 07/05/13, 12:00,  10.8,  61,  11.3,  10.4,   9.6,   0.0,  1.80, 
 07/05/13, 13:00,  10.2,  63,  11.7,  10.4,   9.6,   0.0,  0.72, 
 07/05/13, 14:00,  13.1,  49,  11.8,  10.5,   9.6,   0.0,  2.44, 
 07/05/13, 15:00,  12.2,  43,  11.9,  10.6,   9.6,   0.0,  3.07, 
 07/05/13, 16:00,  11.7,  47,  11.9,  10.7,   9.6,   0.0,  2.20, 
 07/05/13, 17:00,   9.8,  54,  12.1,  10.7,   9.7,   0.0,  1.38, 
 07/05/13, 18:00,   8.8,  57,  12.1,  10.8,   9.7,   0.0,  0.86, 
 07/05/13, 19:00,   7.1,  68,  11.8,  10.9,   9.7,   0.0,  0.16, 
 07/05/13, 20:00,   5.5,  79,  11.5,  10.9,   9.7,   0.0,  0.00, 
 07/05/13, 21:00,   4.6,  81,  11.1,  10.9,   9.6,   0.0,  0.00, 
 07/05/13, 22:00,   4.4,  82,  10.7,  10.9,   9.7,   0.0,  0.00, 
 07/05/13, 23:00,   5.4,  72,  10.4,  10.8,   9.6,   0.0,  0.00, 
 07/05/14, 00:00,   2.9,  87,  10.1,  10.8,   9.6,   0.0,  0.00, 
 07/05/14, 01:00,   3.7,  72,   9.7,  10.7,   9.6,   0.0,  0.00, 
 07/05/14, 02:00,   3.2,  66,   9.4,  10.5,   9.6,   0.0,  0.00, 
 07/05/14, 03:00,   3.3,  55,   9.1,  10.5,   9.7,   0.0,  0.00, 
 07/05/14, 04:00,   5.2,  44,   8.8,  10.3,   9.7,   0.0,  0.00, 
 07/05/14, 05:00,   4.6,  39,   8.6,  10.2,   9.7,   0.0,  0.00, 
 07/05/14, 06:00,   8.1,  19,   8.3,  10.1,   9.7,   0.0,  0.15, 
 07/05/14, 07:00,   9.5,  29,   8.1,  10.0,   9.8,   0.0,  0.95, 
 07/05/14, 08:00,  11.5,  22,   8.3,   9.8,   9.7,   0.0,  1.73, 
 07/05/14, 09:00,  12.5,  37,   8.8,   9.7,   9.7,   0.0,  2.43, 
 07/05/14, 10:00,  14.9,  37,   9.4,   9.6,   9.8,   0.0,  3.03, 
 07/05/14, 11:00,  16.6,  27,  10.4,   9.6,   9.7,   0.0,  3.40, 
 07/05/14, 12:00,  15.7,  25,  11.5,   9.7,   9.6,   0.0,  3.61, 
 07/05/14, 13:00,  17.9,  26,  12.6,   9.8,   9.7,   0.0,  3.60, 
 07/05/14, 14:00,  19.8,  27,  13.0,  10.0,   9.7,   0.0,  3.38, 
 07/05/14, 15:00,  19.0,  31,  13.0,  10.3,   9.7,   0.0,  2.92, 
 07/05/14, 16:00,  17.9,  31,  13.1,  10.5,   9.7,   0.0,  2.28, 
 07/05/14, 17:00,  16.1,  34,  13.4,  10.7,   9.6,   0.0,  1.55, 
 07/05/14, 18:00,  13.9,  36,  13.4,  10.9,   9.6,   0.0,  0.65, 
 07/05/14, 19:00,  11.5,  50,  13.2,  11.0,   9.7,   0.0,  0.06, 
 07/05/14, 20:00,  10.1,  62,  12.7,  11.2,   9.7,   0.0,  0.00, 
 07/05/14, 21:00,   9.6,  70,  12.4,  11.2,   9.7,   0.0,  0.00, 
 07/05/14, 22:00,   8.4,  78,  12.1,  11.3,   9.7,   0.0,  0.00, 
 07/05/14, 23:00,   8.5,  78,  11.8,  11.3,   9.7,   0.0,  0.00, 
 07/05/15, 00:00,   7.5,  87,  11.5,  11.3,   9.6,   0.0,  0.00, 
 07/05/15, 01:00,   6.7,  97,  11.2,  11.2,   9.8,   0.0,  0.00, 
 07/05/15, 02:00,   7.0,  96,  10.9,  11.2,   9.8,   0.0,  0.00, 
 07/05/15, 03:00,   7.9,  80,  10.7,  11.1,   9.7,   0.0,  0.00, 
 07/05/15, 04:00,   6.5,  72,  10.5,  11.0,   9.8,   0.0,  0.00, 
 07/05/15, 05:00,   7.2,  62,  10.3,  10.9,   9.8,   0.0,  0.00, 
 07/05/15, 06:00,   7.7,  70,  10.0,  10.9,   9.9,   0.0,  0.12, 
 07/05/15, 07:00,   6.2,  97,   9.9,  10.8,   9.9,   0.0,  0.12, 
 07/05/15, 08:00,   5.6,  99,   9.8,  10.7,   9.9,   0.0,  0.17, 
 07/05/15, 09:00,   7.3,  94,   9.8,  10.6,   9.9,   0.0,  1.20, 
 07/05/15, 10:00,   9.5,  78,  10.0,  10.5,   9.9,   0.0,  2.25, 
 07/05/15, 11:00,  10.4,  62,  10.6,  10.5,   9.9,   0.0,  2.47, 
 07/05/15, 12:00,  13.3,  53,  11.3,  10.4,   9.9,   0.0,  3.09, 
 07/05/15, 13:00,  11.5,  47,  12.2,  10.5,   9.9,   0.0,  2.34, 
 07/05/15, 14:00,  13.4,  43,  12.5,  10.6,   9.8,   0.0,  3.26, 
 07/05/15, 15:00,  13.3,  40,  12.5,  10.7,   9.8,   0.0,  3.17, 
 07/05/15, 16:00,  12.4,  48,  12.5,  10.9,   9.9,   0.0,  2.07, 
 07/05/15, 17:00,   9.5,  62,  12.7,  11.0,   9.9,   0.0,  0.88, 
 07/05/15, 18:00,   7.7,  65,  12.6,  11.1,   9.9,   0.0,  0.52, 
 07/05/15, 19:00,   6.3,  73,  12.3,  11.2,   9.9,   0.0,  0.17, 
 07/05/15, 20:00,   5.6,  73,  11.9,  11.2,   9.9,   0.0,  0.00, 
 07/05/15, 21:00,   3.4,  86,  11.5,  11.2,   9.9,   0.0,  0.00, 
 07/05/15, 22:00,   2.8,  88,  11.1,  11.2,   9.8,   0.0,  0.00, 
 07/05/15, 23:00,   4.0,  71,  10.7,  11.2,  10.0,   0.0,  0.00, 
 07/05/16, 00:00,   3.3,  68,  10.4,  11.1,   9.9,   0.0,  0.00, 
 07/05/16, 01:00,   2.5,  72,  10.0,  11.0,   9.9,   0.0,  0.00, 